[[{"header":{"parameterUnit":"m.s-1","parameterCategory":1,"la1":30.2991,"la2":30.254,"lo1":-89.0895,"lo2":-89.0444,"dy":0.0017,"dx":0.0017,"nx":28,"ny":28,"refTime":"2024-03-15T09:00:00:Z","depth":0,"parameterNumber":2,"parameterNumberName":"U-component_of_WINDS"},"data":[0,0,0,0,0,0,0,0,0,0,0,0,0,0,0,0,0,0,0,0,0,0,0,0,0,0,0,0,0,0,0,0,0,0,0,0,0,0,0,0,0,0,0,0,0,0,0,0,0,0,0,0,0,0,0,0,0,0,-1.0592,-1.0591,0,-1.05,-1.0499,-1.0498,-1.0415,-1.0414,-1.0413,-1.0412,-1.0317,-1.0316,-1.0314,0,0,0,0,0,0,0,0,0,0,0,0,0,-1.0698,-1.0696,-1.0592,-1.0591,-1.059,-1.05,-1.0499,-1.0498,-1.0415,-1.0414,-1.0413,-1.0412,-1.0318,-1.0316,-1.0314,0,0,0,0,0,0,0,0,0,0,0,0,0,-1.0633,-1.0696,-1.0592,-1.0538,-1.0532,-1.0501,-1.0499,-1.0497,-1.0416,-1.0414,-1.0413,-1.0411,-1.0319,-1.0316,-1.0314,-1.0328,0,0,-1.0306,-1.0305,0,0,0,0,0,0,0,0,-1.0637,-1.063,-1.0547,-1.0542,-1.0535,-1.0468,-1.0501,-1.0441,-1.0416,-1.046,-1.0412,-1.041,-1.0369,-1.0362,-1.0348,-1.0324,-1.032,-1.0306,-1.0305,-1.0304,-1.0303,0,0,0,0,0,0,0,-1.0642,-1.0633,-1.0556,-1.0546,-1.0539,-1.0519,-1.0508,-1.0489,-1.0424,-1.0456,-1.045,-1.044,-1.0365,-1.035,-1.0345,-1.0319,-1.0306,-1.0304,-1.0303,-1.0302,-1.0305,-1.0306,0,0,0,0,0,0,-1.0655,-1.0637,-1.0559,-1.0553,-1.0584,-1.0518,-1.0506,-1.0491,-1.0423,-1.0412,-1.0441,-1.0436,-1.0355,-1.0348,-1.0341,-1.0355,-1.0304,-1.0302,-1.03,-1.0303,-1.0305,-1.0307,0,0,0,0,0,0,-1.0657,-1.0648,-1.0562,-1.0593,-1.0581,-1.0518,-1.0501,-1.049,-1.0475,-1.0412,-1.04,-1.0438,-1.0354,-1.0345,-1.0333,-1.0351,-1.03,-1.0298,-1.0301,-1.0304,-1.0306,-1.0383,0,0,0,0,0,0,-1.066,-1.065,-1.0654,-1.0594,-1.058,-1.0555,-1.0502,-1.0489,-1.0471,-1.0464,-1.0407,-1.0396,-1.0352,-1.0337,-1.0331,-1.0346,-1.0296,-1.03,-1.0303,-1.0305,-1.0378,-1.0387,-1.0395,0,0,0,0,0,-1.0665,-1.0678,-1.0655,-1.0645,-1.0584,-1.0556,-1.0548,-1.0497,-1.0473,-1.0477,-1.0438,-1.0397,-1.035,-1.0336,-1.0328,-1.0344,-1.0298,-1.0302,-1.0305,-1.0374,-1.0385,-1.0395,0,0,0,0,0,0,-1.0741,-1.0669,-1.0642,-1.0637,-1.0604,-1.0542,-1.0545,-1.051,-1.0482,-1.0477,-1.0416,-1.0403,-1.0399,-1.037,-1.0356,-1.0356,-1.0319,-1.0321,-1.0374,-1.0384,-1.0393,-1.0399,-1.0294,0,0,0,0,0,-1.0757,-1.0741,-1.0679,-1.0681,-1.0666,-1.0609,-1.0595,-1.056,-1.0522,-1.0507,-1.0466,-1.0432,-1.0409,-1.0395,-1.0371,-1.0374,-1.0361,-1.0381,-1.039,-1.0397,-1.0399,-1.0401,-1.0409,-1.0318,-1.0318,-1.0318,0,0,-1.079,-1.075,-1.0742,-1.0695,-1.0665,-1.065,-1.0597,-1.0583,-1.0571,-1.0505,-1.0491,-1.0461,-1.0418,-1.0415,-1.0411,-1.0391,-1.0422,-1.0402,-1.0408,-1.0406,-1.0405,-1.0414,-1.0422,-1.032,-1.032,-1.032,0,0,-1.0843,-1.081,-1.0809,-1.078,-1.0736,-1.0699,-1.0699,-1.0643,-1.0621,-1.0607,-1.0557,-1.0543,-1.0505,-1.0477,-1.0458,-1.0505,-1.0468,-1.0499,-1.0542,-1.0545,-1.0552,-1.0558,-1.0576,-1.0583,-1.0502,-1.0502,-1.0502,0,-1.089,-1.0865,-1.0812,-1.0802,-1.0783,-1.0724,-1.0723,-1.0698,-1.0647,-1.0636,-1.0615,-1.0568,-1.0535,-1.0525,-1.0537,-1.0523,-1.0522,-1.0504,-1.0555,-1.0561,-1.0566,-1.0582,-1.0588,-1.0506,-1.0506,-1.0505,-1.0505,0,-1.0925,-1.0909,-1.0913,-1.0867,-1.0849,-1.0844,-1.0791,-1.078,-1.0747,-1.0713,-1.07,-1.0659,-1.0627,-1.0622,-1.0589,-1.0608,-1.0597,-1.0567,-1.0528,-1.0579,-1.0594,-1.0599,-1.0512,-1.051,-1.0509,-1.0508,0,0,-1.102,-1.0948,-1.095,-1.093,-1.0878,-1.0865,-1.0858,-1.0827,-1.0818,-1.0787,-1.078,-1.0751,-1.0723,-1.0702,-1.0666,-1.0668,-1.0709,-1.0637,-1.0635,-1.0652,-1.073,-1.0753,-1.0761,-1.0685,-1.0686,-1.0687,-1.0733,0,-1.1064,-1.1047,-1.1001,-1.0999,-1.0984,-1.093,-1.0923,-1.0892,-1.0861,-1.0844,-1.0809,-1.079,-1.0754,-1.0742,-1.0741,-1.0704,-1.0724,-1.0701,-1.0678,-1.0678,-1.069,-1.0768,-1.0791,-1.0837,-1.0738,-1.0739,-1.074,0,-1.1112,-1.1086,-1.1082,-1.1033,-1.1026,-1.1021,-1.099,-1.0975,-1.0939,-1.0916,-1.0895,-1.0855,-1.0846,-1.0812,-1.0799,-1.0784,-1.0773,-1.0754,-1.0754,-1.0749,-1.0711,-1.0765,-1.085,-1.0857,-1.0748,-1.0747,-1.0747,0,-1.1182,-1.1146,-1.1139,-1.1124,-1.1067,-1.1065,-1.1041,-1.1004,-1.0989,-1.0963,-1.0953,-1.0926,-1.0911,-1.0891,-1.0847,-1.0826,-1.084,-1.0801,-1.0821,-1.0822,-1.0825,-1.0825,-1.0909,-1.0819,-1.0819,-1.0819,-1.0818,0,-1.1236,-1.1236,-1.117,-1.1166,-1.1166,-1.1114,-1.1115,-1.1086,-1.1054,-1.1044,-1.0996,-1.0988,-1.093,-1.0916,-1.0881,-1.0876,-1.087,-1.0852,-1.0842,-1.0856,-1.0858,-1.0846,-1.0842,-1.082,-1.082,-1.082,-1.0819,0,-1.1313,-1.1269,-1.1259,-1.1207,-1.1195,-1.1196,-1.1152,-1.1147,-1.1114,-1.1103,-1.1097,-1.1046,-1.1027,-1.0981,-1.0949,-1.0926,-1.0931,-1.0914,-1.0943,-1.0937,-1.096,-1.0959,-1.1039,-1.1048,-1.0953,-1.0954,-1.0954,0,-1.1349,-1.1348,-1.1298,-1.1288,-1.1267,-1.1252,-1.1237,-1.1188,-1.1175,-1.1136,-1.1136,-1.1113,-1.1092,-1.1065,-1.1025,-1.1002,-1.0984,-1.1014,-1.098,-1.0994,-1.0984,-1.0985,-1.0985,-1.1021,-1.1022,-1.1023,-1.1024,0,-1.1419,-1.1399,-1.1379,-1.1354,-1.1338,-1.1315,-1.129,-1.1285,-1.123,-1.1218,-1.1199,-1.1183,-1.1152,-1.1131,-1.1102,-1.1078,-1.1043,-1.1036,-1.1039,-1.1052,-1.1069,-1.1061,-1.0963,-1.1033,-1.1032,-1.1032,-1.1031,-1.1031,-1.1477,-1.1475,-1.1439,-1.142,-1.1397,-1.1375,-1.1368,-1.1336,-1.1319,-1.129,-1.1263,-1.1247,-1.1214,-1.1171,-1.115,-1.1138,-1.1119,-1.1124,-1.1125,-1.1127,-1.1133,-1.1073,-1.1132,-1.1132,-1.1132,-1.1131,-1.1131,0,-1.1544,-1.152,-1.1503,-1.147,-1.1456,-1.1426,-1.1397,-1.1387,-1.1374,-1.1346,-1.1327,-1.1307,-1.1287,-1.1247,-1.1224,-1.1221,-1.1205,-1.1217,-1.1216,-1.1212,-1.1151,-1.115,-1.1231,-1.1231,-1.1231,-1.1231,-1.1231,-1.1231,-1.1578,-1.1572,-1.1548,-1.1532,-1.1507,-1.1492,-1.1478,-1.1458,-1.1436,-1.1415,-1.1399,-1.1374,-1.1342,-1.1316,-1.1297,-1.1286,-1.128,-1.1298,-1.1282,-1.1225,-1.1216,-1.1207,-1.1206,-1.1297,-1.1297,-1.1343,-1.1344,-1.1344]},{"header":{"parameterUnit":"m.s-1","parameterCategory":1,"la1":30.2991,"la2":30.254,"lo1":-89.0895,"lo2":-89.0444,"dy":0.0017,"dx":0.0017,"nx":28,"ny":28,"refTime":"2024-03-15T09:00:00:Z","depth":0,"parameterNumber":3,"parameterNumberName":"V-component_of_WINDS"},"data":[0,0,0,0,0,0,0,0,0,0,0,0,0,0,0,0,0,0,0,0,0,0,0,0,0,0,0,0,0,0,0,0,0,0,0,0,0,0,0,0,0,0,0,0,0,0,0,0,0,0,0,0,0,0,0,0,0,0,1.5749,1.5749,0,1.573,1.573,1.573,1.5803,1.5805,1.5807,1.5809,1.5788,1.5785,1.5783,0,0,0,0,0,0,0,0,0,0,0,0,0,1.5849,1.5847,1.5749,1.5749,1.5749,1.573,1.573,1.573,1.5802,1.5805,1.5808,1.581,1.5789,1.5786,1.5783,0,0,0,0,0,0,0,0,0,0,0,0,0,1.5815,1.5846,1.5749,1.5783,1.5786,1.573,1.573,1.573,1.5802,1.5805,1.5808,1.5812,1.579,1.5786,1.5782,1.5693,0,0,1.577,1.5769,0,0,0,0,0,0,0,0,1.5817,1.5811,1.5778,1.5781,1.5784,1.5772,1.5757,1.5717,1.5801,1.5796,1.5809,1.5813,1.578,1.5777,1.5766,1.5692,1.5691,1.577,1.5768,1.5766,1.5765,0,0,0,0,0,0,0,1.5819,1.5813,1.5742,1.5778,1.5781,1.5799,1.5798,1.575,1.577,1.5796,1.5802,1.5799,1.5782,1.577,1.5766,1.5691,1.577,1.5767,1.5764,1.5763,1.5543,1.554,0,0,0,0,0,0,1.5817,1.5814,1.5742,1.5741,1.5809,1.5795,1.5793,1.5773,1.577,1.5773,1.5796,1.5802,1.5775,1.5771,1.5766,1.5661,1.5766,1.5762,1.576,1.5546,1.5542,1.5538,0,0,0,0,0,0,1.5819,1.581,1.5743,1.5779,1.5772,1.5789,1.5766,1.5771,1.5758,1.577,1.5774,1.578,1.5777,1.5771,1.5711,1.5662,1.5761,1.5757,1.5551,1.5545,1.554,1.5451,0,0,0,0,0,0,1.5822,1.581,1.5776,1.5778,1.577,1.5688,1.5763,1.5768,1.5752,1.576,1.5756,1.5758,1.5779,1.5716,1.5707,1.5658,1.5754,1.5555,1.5548,1.5542,1.5459,1.5444,1.5431,0,0,0,0,0,1.5825,1.5752,1.5774,1.5765,1.5728,1.5685,1.568,1.5707,1.5747,1.5713,1.5721,1.5758,1.5669,1.5709,1.57,1.5649,1.5558,1.555,1.5543,1.5465,1.5447,1.5431,0,0,0,0,0,0,1.5743,1.5752,1.5778,1.5703,1.5693,1.5698,1.5655,1.5686,1.5664,1.5672,1.5706,1.5704,1.5638,1.5638,1.5682,1.5563,1.5621,1.561,1.5565,1.5548,1.5534,1.5535,1.5751,0,0,0,0,0,1.5716,1.5681,1.5691,1.5624,1.5618,1.5637,1.562,1.5641,1.5632,1.5628,1.5631,1.562,1.559,1.5569,1.5542,1.546,1.546,1.542,1.5406,1.5395,1.5385,1.5342,1.5325,1.5513,1.5513,1.5513,0,0,1.566,1.5661,1.5637,1.5607,1.5602,1.5565,1.5633,1.5591,1.5563,1.5621,1.5564,1.5566,1.5557,1.5485,1.5454,1.5483,1.5334,1.5385,1.5375,1.5372,1.5332,1.5315,1.5299,1.5507,1.5508,1.5509,0,0,1.5539,1.5536,1.548,1.5474,1.5466,1.548,1.5466,1.5467,1.5471,1.5415,1.5458,1.5426,1.5373,1.5364,1.5353,1.5231,1.5265,1.5221,1.5148,1.5106,1.5091,1.5078,1.5035,1.5019,1.5212,1.5212,1.5212,0,1.547,1.5416,1.5448,1.5402,1.5389,1.5441,1.5384,1.5377,1.5359,1.5349,1.5382,1.5317,1.5314,1.5242,1.5212,1.5202,1.5187,1.5221,1.5091,1.5078,1.5067,1.5025,1.5009,1.5207,1.5207,1.5208,1.5208,0,1.5332,1.5294,1.525,1.5233,1.5215,1.5164,1.5188,1.5165,1.5188,1.5199,1.5141,1.514,1.5114,1.5099,1.5121,1.5029,1.5048,1.5085,1.5144,1.5043,1.5005,1.4989,1.5199,1.5201,1.5203,1.5204,0,0,1.5157,1.516,1.5143,1.5136,1.5132,1.5103,1.5055,1.5031,1.5011,1.4998,1.4958,1.4913,1.4949,1.4936,1.4958,1.4921,1.4824,1.4963,1.4964,1.4937,1.4724,1.4695,1.4676,1.4847,1.4845,1.4842,1.4725,0,1.5038,1.4957,1.4984,1.4902,1.4867,1.4917,1.4876,1.4869,1.4877,1.485,1.486,1.4827,1.4876,1.4869,1.4835,1.4843,1.4782,1.4852,1.4811,1.4809,1.4811,1.4657,1.4626,1.4515,1.471,1.4708,1.4706,0,1.4888,1.487,1.4784,1.4787,1.4773,1.4736,1.4716,1.4689,1.4682,1.4691,1.4678,1.4708,1.4662,1.4721,1.4658,1.4705,1.469,1.4692,1.4688,1.4685,1.475,1.4648,1.448,1.4463,1.4683,1.4685,1.4686,0,1.4768,1.4723,1.4666,1.4659,1.466,1.4633,1.4632,1.4629,1.4613,1.4596,1.4586,1.4563,1.455,1.4532,1.4555,1.4597,1.4489,1.455,1.4495,1.4494,1.4468,1.4469,1.4295,1.446,1.446,1.446,1.4461,0,1.4632,1.4577,1.4612,1.4577,1.4517,1.455,1.449,1.4495,1.4492,1.4459,1.4501,1.4469,1.4503,1.4473,1.4492,1.4437,1.4431,1.4437,1.4442,1.4432,1.4431,1.4422,1.443,1.4456,1.4457,1.4458,1.4459,0,1.4487,1.4508,1.4449,1.4457,1.4458,1.4413,1.442,1.4388,1.4401,1.4358,1.435,1.437,1.4338,1.436,1.4328,1.434,1.4268,1.4284,1.427,1.4274,1.4218,1.4222,1.403,1.4006,1.4187,1.4185,1.4184,0,1.4398,1.4357,1.4361,1.4342,1.4339,1.4308,1.4293,1.4324,1.4305,1.4296,1.4265,1.4237,1.4216,1.4163,1.4174,1.4151,1.4166,1.4101,1.4163,1.4155,1.4165,1.4167,1.4163,1.4088,1.4085,1.4084,1.4082,0,1.4238,1.4251,1.4227,1.4206,1.4187,1.4172,1.416,1.4143,1.4175,1.4152,1.412,1.4104,1.4073,1.4044,1.4025,1.4025,1.4058,1.4063,1.4049,1.4038,1.4031,1.4034,1.4235,1.4067,1.4068,1.407,1.407,1.4071,1.4118,1.4085,1.4082,1.4054,1.405,1.4039,1.4009,1.4019,1.3993,1.397,1.3991,1.3953,1.3949,1.3927,1.3922,1.3893,1.392,1.3899,1.3894,1.3888,1.388,1.4037,1.389,1.389,1.3891,1.3891,1.3892,0,1.396,1.3961,1.3935,1.3919,1.3897,1.3933,1.3922,1.3901,1.3868,1.3862,1.3841,1.3805,1.3779,1.3789,1.3765,1.374,1.3755,1.3733,1.3734,1.3734,1.3858,1.3872,1.3721,1.3721,1.3721,1.3721,1.3721,1.3721,1.3875,1.382,1.3833,1.3777,1.378,1.3743,1.3735,1.3725,1.372,1.3679,1.3657,1.3664,1.3665,1.3642,1.3619,1.3623,1.3612,1.3584,1.3593,1.3708,1.3725,1.3741,1.3755,1.3581,1.3581,1.3472,1.347,1.347]}]]